Location: Most
(50.5133°N, 13.6207°E)
Time: 10:35:25
(UTC+01:00)

SEEDS - Pass Details

Date: 30 November 2021
Orbit: 584 x 600 km, 97.6° (Epoch: 22 January)

Event Time Altitude Azimuth Distance (km) Brightness Sun altitude
Rises 17:15:18 0° 223° (SW) 2,828 ? -10.7°
Reaches altitude 10° 17:19:42 10° 267° (W) 1,930 ? -11.4°
Maximum altitude 17:20:14 10° 275° (W) 1,916 ? -11.4°
Drops below altitude 10° 17:20:47 10° 282° (WNW) 1,930 ? -11.5°
Sets 17:25:11 0° 327° (NNW) 2,835 ? -12.2°
